sat.trackr.live / text

‹ back to catalog

STARLINK-1216

NORAD 45185 · 2020-012H

PAYLOAD ACTIVE UNKNOWN

§ Identity

Operator
Country
US
Launch date
2020-02-17
Launch site
AFETR
Launch vehicle
Mass (kg)
RCS (m²)

Purposes: comms

External: N2YO · Heavens-Above · Gunter

§ Orbital elements

Epoch: 2026-09-19T09:55:10.682112Z

Period
93.19 min
Inclination
53.1535°
Eccentricity
0.0003101
Mean motion
15.45184470 rev/d
Perigee alt
428.7 km
Apogee alt
432.9 km
Semi-major
6,809.0 km
B*
3.5006e-4
RAAN
210.2189°
Arg perigee
58.2967°
Mean anomaly
301.8342°
Rev number
36,468

§ Raw data

STARLINK-12161 45185U 20012H   26262.41331808  .00016484  00000+0  35006-3 0  99932 45185  53.1535 210.2189 0003101  58.2967 301.8342 15.45184470364689

JSON: /api/v1/satellites/45185 · /tle

For live sub-satellite position, see the globe view (requires WebGL).

§ Visibility from observer

Set your observer location to see the next 7 days of passes ≥ 10°. The values pass through the URL so the page stays shareable.

No JS? Fill the form by hand. The geolocation button needs JavaScript.